User: anonymous   Login
Location: Newark
(50.8086°N, 4.3114°E)
Time: 21:57:46
(UTC+00:00)
Language:

CAS-4A - Orbit

View from above orbital plane
View from above orbital plane
View from above satellite
View from above satellite

Ground track
Ground track

The orbit data is extracted from the following two-line orbital elements,

1 42761U 17034D   20027.53703692  .00000019  00000-0  14641-4 0  9991
2 42761  43.0199  86.1251 0012437 223.6710 274.4819 15.09805434144518
Epoch (UTC): 27 January 2020 12:53:19
Eccentricity: 0.0012437
inclination: 43.0199°
perigee height: 528 km
apogee height: 545 km
right ascension of ascending node: 86.1251°
argument of perigee: 223.6710°
revolutions per day: 15.09805434
mean anomaly at epoch: 274.4819°
orbit number at epoch: 14451

The dashed part of the orbit path shows where the satellite is in the earth's shadow,  

DLR